GW6960 Weather Reports


time (UTC)temp
F
wind
direction
speed
knots
gust
knots
rain 1hr
in
rain 24hr
in
rain mn
in
humidity
%
barometer
mb
20260505094213 67 194 10.4 13.9 0.00 0.00 0.00 93
20260505093912 67 183 12.2 15.6 0.00 0.00 0.00 93
20260505093611 67 173 11.3 18.2 0.00 0.00 0.00 93
20260505093311 67 136 7.8 14.8 0.00 0.00 0.00 93
20260505093011 67 176 13.0 15.6 0.00 0.00 0.00 93
20260505092710 67 145 11.3 20.9 0.00 0.00 0.00 93
20260505092409 67 149 9.6 15.6 0.00 0.00 0.00 93
20260505092108 67 149 7.0 13.9 0.00 0.00 0.00 93
20260505091807 66 144 10.4 14.8 0.00 0.00 0.00 93
20260505091507 66 126 10.4 13.0 0.00 0.00 0.00 93
20260505091206 66 170 7.8 14.8 0.00 0.00 0.00 93
20260505090915 66 178 10.4 14.8 0.00 0.00 0.00 93
20260505090614 67 149 7.0 9.6 0.00 0.00 0.00 93
20260505090313 67 170 7.0 9.6 0.00 0.00 0.00 93
20260505090012 67 166 7.8 9.6 0.00 0.00 0.00 93
20260505090001 67 139 6.1 13.9 0.00 0.00 0.00 93
20260505084207 67 171 3.5 9.6 0.00 0.00 0.00 93
20260505083914 67 107 3.5 7.0 0.00 0.00 0.00 93
20260505083610 67 122 7.0 9.6 0.00 0.00 0.00 93
20260505083310 67 165 2.6 7.0 0.00 0.00 0.00 93
20260505083008 67 211 3.5 7.0 0.00 0.00 0.00 93
20260505082707 67 147 5.2 8.7 0.00 0.00 0.00 93
20260505082407 67 122 4.3 10.4 0.00 0.00 0.00 93
20260505082107 67 148 6.1 8.7 0.00 0.00 0.00 93
20260505081807 67 146 4.3 7.8 0.00 0.00 0.00 93
20260505081517 67 148 6.1 8.7 0.00 0.00 0.00 93
20260505081214 67 178 5.2 7.0 0.00 0.00 0.00 93
20260505080911 67 102 5.2 7.0 0.00 0.00 0.00 93
20260505080610 67 166 1.7 7.0 0.00 0.00 0.00 93
20260505080310 67 126 3.5 6.1 0.00 0.00 0.00 93
20260505080008 67 200 6.1 8.7 0.00 0.00 0.00 93
20260505074214 67 157 5.2 7.0 0.00 0.00 0.00 93
20260505073911 67 207 7.8 12.2 0.00 0.00 0.00 93
20260505073616 67 137 6.1 10.4 0.00 0.00 0.00 93
20260505073316 67 159 5.2 9.6 0.00 0.00 0.00 93
20260505073020 67 158 9.6 13.0 0.00 0.00 0.00 93
20260505072715 67 138 3.5 7.8 0.00 0.00 0.00 93
20260505072414 67 129 4.3 9.6 0.00 0.00 0.00 93
20260505072113 67 132 7.8 13.9 0.00 0.00 0.00 93
20260505071812 68 173 5.2 9.6 0.00 0.00 0.00 93
20260505071512 68 154 6.1 13.0 0.00 0.00 0.00 92
20260505071210 68 129 5.2 13.0 0.00 0.00 0.00 92
20260505070906 68 154 6.1 10.4 0.00 0.00 0.00 92
20260505070615 68 123 5.2 10.4 0.00 0.00 0.00 92
20260505070321 68 159 7.0 10.4 0.00 0.00 0.00 92
20260505070008 68 164 11.3 13.9 0.00 0.00 0.00 92
20260505064512 68 179 10.4 13.0 0.00 0.00 0.00 91
20260505064211 68 159 8.7 12.2 0.00 0.00 0.00 91
20260505063907 68 169 8.7 13.9 0.00 0.00 0.00 91
20260505063617 68 159 8.7 13.0 0.00 0.00 0.00 90
20260505063310 68 149 7.0 14.8 0.00 0.00 0.00 90
20260505063008 68 144 11.3 14.8 0.00 0.00 0.00 90
20260505062708 68 144 10.4 15.6 0.00 0.00 0.00 90
20260505062417 67 144 8.7 15.6 0.00 0.00 0.00 91
20260505062118 67 164 8.7 13.0 0.00 0.00 0.00 92
20260505061817 68 200 9.6 13.9 0.00 0.00 0.00 92
20260505061508 68 136 3.5 9.6 0.00 0.00 0.00 92
20260505061220 68 183 9.6 13.0 0.00 0.00 0.00 92
20260505060912 68 157 8.7 13.0 0.00 0.00 0.00 92
20260505060616 68 145 9.6 14.8 0.00 0.00 0.00 92
20260505060315 68 129 7.0 10.4 0.00 0.00 0.00 92
20260505060010 68 175 10.4 17.4 0.00 0.00 0.00 92
20260505054215 68 153 10.4 13.9 0.00 0.00 0.00 92
20260505053911 68 186 5.2 14.8 0.00 0.00 0.00 92
20260505053610 68 197 7.0 13.0 0.00 0.00 0.00 92
20260505053314 68 184 7.0 14.8 0.00 0.00 0.00 92
20260505053007 68 145 7.8 13.0 0.00 0.00 0.00 93
20260505052718 68 180 10.4 13.0 0.00 0.00 0.00 93
20260505052416 68 150 9.6 13.0 0.00 0.00 0.00 93
20260505052114 68 163 12.2 15.6 0.00 0.00 0.00 92
20260505051810 68 119 7.8 15.6 0.00 0.00 0.00 92
20260505051510 68 191 6.1 13.0 0.00 0.00 0.00 92
20260505051210 68 184 9.6 14.8 0.00 0.00 0.00 92
20260505050908 68 163 7.0 13.9 0.00 0.00 0.00 92
20260505050617 68 144 7.8 14.8 0.00 0.00 0.00 92
20260505050317 68 135 7.0 15.6 0.00 0.00 0.00 92
20260505041516 68 189 8.7 15.6 0.00 0.00 0.00 92
20260505041221 68 181 10.4 14.8 0.00 0.00 0.00 92
20260505040915 68 210 13.0 15.6 0.00 0.00 0.00 92
20260505040614 68 183 10.4 13.9 0.00 0.00 0.00 92
20260505040312 68 231 9.6 13.0 0.00 0.00 0.00 92
20260505040012 68 188 10.4 12.2 0.00 0.00 0.00 92
20260505034212 68 106 3.5 8.7 0.00 0.00 0.00 92
20260505033911 68 162 7.0 8.7 0.00 0.00 0.00 91
20260505033610 68 122 3.5 7.8 0.00 0.00 0.00 91
20260505033310 68 151 6.1 12.2 0.00 0.00 0.00 91
20260505033008 68 226 7.8 10.4 0.00 0.00 0.00 91
20260505032707 68 134 5.2 6.1 0.00 0.00 0.00 91
20260505032412 68 185 4.3 7.8 0.00 0.00 0.00 91
20260505032114 68 164 4.3 6.1 0.00 0.00 0.00 90
20260505031809 68 180 3.5 7.8 0.00 0.00 0.00 90
20260505031508 68 172 5.2 7.0 0.00 0.00 0.00 90
20260505031207 68 126 4.3 8.7 0.00 0.00 0.00 90
20260505030916 68 215 7.8 10.4 0.00 0.00 0.00 90
20260505030616 68 174 5.2 9.6 0.00 0.00 0.00 90
20260505030314 68 149 8.7 9.6 0.00 0.00 0.00 90
20260505030008 68 198 8.7 9.6 0.00 0.00 0.00 90
20260505024208 68 178 7.0 10.4 0.00 0.00 0.00 90
20260505023915 68 168 7.0 8.7 0.00 0.00 0.00 90
20260505023612 68 154 6.1 8.7 0.00 0.00 0.00 90
20260505023307 67 207 3.5 10.4 0.00 0.00 0.00 90
20260505023016 67 142 6.1 7.0 0.00 0.00 0.00 91
20260505022713 67 183 4.3 8.7 0.00 0.00 0.00 91
20260505022418 67 133 5.2 10.4 0.00 0.00 0.00 91
20260505022110 67 132 4.3 7.8 0.00 0.00 0.00 90
20260505021818 67 207 7.0 8.7 0.00 0.00 0.00 90
20260505021513 67 165 6.1 7.8 0.00 0.00 0.00 90
20260505021211 67 157 3.5 6.1 0.00 0.00 0.00 90
20260505020907 67 176 4.3 7.0 0.00 0.00 0.00 90
20260505020615 68 144 4.3 6.1 0.00 0.00 0.00 90
20260505020312 68 183 6.1 9.6 0.00 0.00 0.00 90
20260505020009 68 177 6.1 7.8 0.00 0.00 0.00 90
20260505014211 68 182 3.5 7.0 0.00 0.00 0.00 89
20260505013919 68 164 7.0 10.4 0.00 0.00 0.00 88
20260505013617 68 162 5.2 6.1 0.00 0.00 0.00 88
20260505013315 68 150 4.3 7.8 0.00 0.00 0.00 88
20260505013011 68 187 5.2 7.0 0.00 0.00 0.00 88
20260505012708 68 155 6.1 7.8 0.00 0.00 0.00 88
20260505012417 68 160 6.1 7.0 0.00 0.00 0.00 88
20260505012111 68 171 5.2 8.7 0.00 0.00 0.00 88
20260505011819 68 171 10.4 12.2 0.00 0.00 0.00 88
20260505011517 68 148 6.1 10.4 0.00 0.00 0.00 88
20260505011215 68 161 8.7 10.4 0.00 0.00 0.00 88
20260505010908 68 174 6.1 8.7 0.00 0.00 0.00 88
20260505010618 68 186 4.3 8.7 0.00 0.00 0.00 87
20260505010317 68 174 5.2 8.7 0.00 0.00 0.00 87
20260505010012 68 210 6.1 7.8 0.00 0.00 0.00 87
20260505010000 68 145 4.3 12.2 0.00 0.00 0.00 87
20260505004209 68 120 7.0 8.7 0.00 0.00 0.00 88
20260505003915 68 165 6.1 8.7 0.00 0.00 0.00 89
20260505003612 68 158 7.0 10.4 0.00 0.00 0.00 89
20260505003308 68 178 5.2 6.1 0.00 0.00 0.00 89
20260505003016 68 205 3.5 6.1 0.00 0.00 0.00 89
20260505002713 68 163 2.6 7.0 0.00 0.00 0.00 89
20260505002410 68 100 4.3 9.6 0.00 0.00 0.00 89
20260505002107 68 153 2.6 3.5 0.00 0.00 0.00 89
20260505001815 68 225 5.2 7.8 0.00 0.00 0.00 89
20260505001519 68 149 3.5 7.8 0.00 0.00 0.00 89
20260505001217 68 165 4.3 6.1 0.00 0.00 0.00 89
20260505000913 68 178 3.5 7.0 0.00 0.00 0.00 89
20260505000616 68 178 5.2 8.7 0.00 0.00 0.00 89
20260505000308 68 178 5.2 7.0 0.00 0.00 0.00 89
20260505000014 68 164 6.1 7.8 0.00 0.00 0.00 89
20260505000002 68 169 6.1 9.6 0.00 0.00 0.00 89
20260504234215 68 162 4.3 6.1 0.00 0.00 0.00 89
20260504233912 68 151 4.3 9.6 0.00 0.00 0.00 88
20260504233617 68 164 5.2 7.8 0.00 0.00 0.00 88
20260504233310 68 178 4.3 6.1 0.00 0.00 0.00 88
20260504233017 68 203 6.1 7.8 0.00 0.00 0.00 88
20260504232713 68 164 5.2 7.0 0.00 0.00 0.00 88
20260504232411 68 202 7.0 9.6 0.00 0.00 0.00 89
20260504232108 68 164 2.6 3.5 0.00 0.00 0.00 89
20260504231815 68 168 2.6 6.1 0.00 0.00 0.00 89
20260504231512 68 171 2.6 6.1 0.00 0.00 0.00 90
20260504231209 68 184 5.2 6.1 0.00 0.00 0.00 90
20260504230919 68 216 2.6 3.5 0.00 0.00 0.00 90
20260504230617 68 104 0.9 3.5 0.00 0.00 0.00 90
20260504230314 68 156 3.5 5.2 0.00 0.00 0.00 91
20260504230013 68 142 5.2 10.4 0.00 0.00 0.00 91
20260504224214 68 171 9.6 13.0 0.00 0.00 0.00 91
20260504223912 68 167 8.7 9.6 0.00 0.00 0.00 91
20260504223609 68 166 7.8 13.0 0.00 0.00 0.00 91
20260504223308 69 194 6.1 13.9 0.00 0.00 0.00 91
20260504223016 68 182 7.8 12.2 0.00 0.00 0.00 91
20260504222715 69 188 9.6 13.0 0.00 0.00 0.00 91
20260504222411 69 179 7.8 18.2 0.00 0.00 0.00 91
20260504222119 69 197 7.8 17.4 0.00 0.00 0.00 91
20260504221815 69 108 9.6 13.0 0.00 0.00 0.00 91
20260504221513 69 200 8.7 17.4 0.00 0.00 0.00 91
20260504221210 69 192 7.8 14.8 0.00 0.00 0.00 91
20260504220918 69 171 7.8 13.9 0.00 0.00 0.00 92
20260504220616 69 196 13.9 18.2 0.00 0.00 0.00 91
20260504220313 69 199 11.3 14.8 0.00 0.00 0.00 92
20260504220010 69 141 3.5 12.2 0.00 0.00 0.00 92
20260504214218 69 204 7.8 9.6 0.00 0.00 0.00 91
20260504213918 69 182 11.3 13.0 0.00 0.00 0.00 91
20260504213615 69 203 9.6 10.4 0.00 0.00 0.00 91
20260504213310 69 212 11.3 13.0 0.00 0.00 0.00 91
20260504213019 69 175 7.0 10.4 0.00 0.00 0.00 91
20260504212716 69 191 8.7 12.2 0.00 0.00 0.00 91
20260504212414 69 159 7.0 12.2 0.00 0.00 0.00 91
20260504212109 69 156 3.5 13.0 0.00 0.00 0.00 91
20260504211818 69 194 7.8 12.2 0.00 0.00 0.00 91
20260504211517 69 127 4.3 13.9 0.00 0.00 0.00 91
20260504211214 69 214 6.1 12.2 0.00 0.00 0.00 91
20260504210916 69 199 8.7 12.2 0.00 0.00 0.00 91
20260504210612 69 187 8.7 10.4 0.00 0.00 0.00 91
20260504210308 69 183 8.7 19.1 0.00 0.00 0.00 91
20260504210018 69 165 7.8 17.4 0.00 0.00 0.00 92
20260504210006 69 202 10.4 15.6 0.00 0.00 0.00 92
20260504204219 69 174 8.7 13.0 0.00 0.00 0.00 92
20260504203917 69 167 10.4 17.4 0.00 0.00 0.00 92
20260504203612 69 193 13.0 15.6 0.00 0.00 0.00 92
20260504203320 69 214 7.0 13.9 0.00 0.00 0.00 92
20260504203017 69 178 14.8 18.2 0.00 0.00 0.00 92
20260504202715 69 216 10.4 19.1 0.00 0.00 0.00 92
20260504202411 70 196 7.8 10.4 0.00 0.00 0.00 92
20260504202120 69 168 9.6 18.2 0.00 0.00 0.00 91
20260504201816 69 182 11.3 14.8 0.00 0.00 0.00 91
20260504201512 70 190 12.2 19.1 0.00 0.00 0.00 91
20260504201220 70 170 10.4 13.9 0.00 0.00 0.00 91
20260504200915 70 184 10.4 17.4 0.00 0.00 0.00 90
20260504200617 70 220 9.6 15.6 0.00 0.00 0.00 90
20260504200315 70 147 7.8 14.8 0.00 0.00 0.00 90
20260504200013 69 207 12.2 15.6 0.00 0.00 0.00 90
20260504200001 70 176 13.0 17.4 0.00 0.00 0.00 90
20260504194209 70 208 10.4 14.8 0.00 0.00 0.00 89
20260504193915 70 187 12.2 13.9 0.00 0.00 0.00 89
20260504193611 70 239 7.8 14.8 0.00 0.00 0.00 89
20260504193318 70 235 13.9 18.2 0.00 0.00 0.00 88
20260504193017 70 177 8.7 13.0 0.00 0.00 0.00 88
20260504192711 70 126 10.4 13.9 0.00 0.00 0.00 88
20260504192409 70 183 14.8 20.9 0.00 0.00 0.00 87
20260504192119 71 206 10.4 17.4 0.00 0.00 0.00 87
20260504191817 70 180 9.6 14.8 0.00 0.00 0.00 86
20260504191514 70 216 14.8 15.6 0.00 0.00 0.00 86
20260504191213 71 221 10.4 19.1 0.00 0.00 0.00 86
20260504190919 71 216 13.0 15.6 0.00 0.00 0.00 85
20260504190616 70 185 13.0 15.6 0.00 0.00 0.00 85
20260504190315 70 171 10.4 15.6 0.00 0.00 0.00 86
20260504190012 70 197 12.2 14.8 0.00 0.00 0.00 86
20260504190000 70 152 9.6 15.6 0.00 0.00 0.00 86
20260504184220 71 205 8.7 17.4 0.00 0.00 0.00 85
20260504183919 71 177 8.7 13.9 0.00 0.00 0.00 84
20260504183619 71 257 14.8 20.0 0.00 0.00 0.00 83
20260504183318 72 179 12.2 15.6 0.00 0.00 0.00 83
20260504182713 71 210 13.0 20.9 0.00 0.00 0.00 83
20260504182413 71 169 9.6 17.4 0.00 0.00 0.00 82
20260504182113 71 226 8.7 13.0 0.00 0.00 0.00 82
20260504181811 71 170 10.4 17.4 0.00 0.00 0.00 81
20260504181511 71 200 14.8 19.1 0.00 0.00 0.00 81
20260504181210 71 210 15.6 19.1 0.00 0.00 0.00 81
20260504180911 71 180 10.4 13.9 0.00 0.00 0.00 81
20260504180610 71 192 8.7 14.8 0.00 0.00 0.00 82
20260504180309 72 183 12.2 14.8 0.00 0.00 0.00 81
20260504180009 71 220 13.0 18.2 0.00 0.00 0.00 81
20260504174213 71 193 14.8 20.0 0.00 0.00 0.00 81
20260504173911 71 211 12.2 17.4 0.00 0.00 0.00 81
20260504173610 72 202 9.6 17.4 0.00 0.00 0.00 80
20260504173319 72 191 9.6 18.2 0.00 0.00 0.00 80
20260504173015 72 169 12.2 15.6 0.00 0.00 0.00 78
20260504172715 72 197 13.0 19.1 0.00 0.00 0.00 78
20260504172414 72 204 13.0 19.1 0.00 0.00 0.00 77
20260504172113 72 205 13.9 18.2 0.00 0.00 0.00 77
20260504171814 72 197 11.3 19.1 0.00 0.00 0.00 76
20260504171514 72 184 13.0 18.2 0.00 0.00 0.00 76
20260504171213 72 187 10.4 19.1 0.00 0.00 0.00 76
20260504170911 72 183 11.3 13.9 0.00 0.00 0.00 76
20260504170621 72 179 7.8 17.4 0.00 0.00 0.00 74
20260504170321 73 138 7.8 15.6 0.00 0.00 0.00 74
20260504160314 73 163 12.2 18.2 0.00 0.00 0.00 66
20260504150911 71 164 18.2 27.8 0.00 0.00 0.00 78
20260504150611 71 146 20.0 25.2 0.00 0.00 0.00 81
20260504150314 71 194 13.9 19.1 0.00 0.00 0.00 81
20260504141219 71 209 13.0 20.0 0.00 0.00 0.00 85
20260504140915 70 209 10.4 18.2 0.00 0.00 0.00 85
20260504140613 70 211 11.3 15.6 0.00 0.00 0.00 84
20260504140319 70 146 17.4 21.7 0.00 0.00 0.00 84
20260504130611 69 220 10.4 18.2 0.00 0.00 0.00 82
20260504130320 69 198 6.1 21.7 0.00 0.00 0.00 81
20260504120318 68 169 6.1 14.8 0.00 0.00 0.00 83
20260504110616 67 135 6.1 13.9 0.00 0.00 0.00 91
20260504110316 66 158 11.3 14.8 0.00 0.00 0.00 92
20260504100615 66 168 7.0 10.4 0.00 0.00 0.00 93
20260504100315 66 150 4.3 7.0 0.00 0.00 0.00 93